Meteo Giornale » Osservazioni meteo Stati Uniti (USA) » New York City Central Park

ore: 18:51 - Osservazioni Meteo New York City Central Park
Lat. 40° 47' N Lon. 73° 58' W Alt. 47 metri s.l.m.

sereno America/New_York

19 °C

Sereno

Temp. 24 Ore

13 °C

21 °C

Nord

9.3 Km/h

Dew point 6 °C

Umidità 42 %

Visibilità  10 Km

Il sole sorge alle ore 07:11

Il sole tramonta alle ore 18:09

Data e Ora Cielo e Fenomeni T °C DP °C Um. % Pres. hPa Vis. km Vento km/h
Oggi h: 18:51 sereno Sereno 19 6 42 1019 10 N 9.3
Oggi h: 17:51 sereno Sereno 20 6 39 1019 10 N 9.3
Oggi h: 16:51 sereno Sereno 21 5 35 1019 10 O/SO 14.8
Oggi h: 15:51 sereno Sereno 21 6 37 1020 10 N 5.5
Oggi h: 14:51 sereno Sereno 21 6 37 1021 10 N 7.4
Oggi h: 13:51 sereno Sereno 21 5 35 1022 10 S/SO 11.1
Oggi h: 12:51 sereno Sereno 21 6 37 1023 10 N 7.4
Oggi h: 11:51 sereno Sereno 19 7 45 1024 14 N 0
Oggi h: 10:51 sereno Sereno 17 8 55 1024 14 N 7.4
Oggi h: 09:51 sereno Sereno 16 7 55 1025 14 N 0
Oggi h: 08:51 sereno Sereno 15 7 58 1025 10 N 7.4
Oggi h: 07:51 sereno Sereno 14 8 67 1025 10 N 0
Oggi h: 06:51 sereno Sereno 13 8 71 1025 10 N 5.5
Oggi h: 05:51 sereno Sereno 13 7 66 1025 10 O 9.3
Oggi h: 04:51 sereno Sereno 14 7 62 1025 10 N 5.5
Oggi h: 03:51 sereno Sereno 14 7 62 1025 10 O 9.3
Oggi h: 02:51 sereno Sereno 16 7 55 1025 10 O 9.3
Oggi h: 01:51 sereno Sereno 16 7 55 1025 10 N 7.4
Oggi h: 00:51 sereno Sereno 16 8 58 1026 10 O/SO 13
Ieri h: 23:51 sereno Sereno 17 8 55 1026 10 N 9.3
Ieri h: 22:51 sereno Sereno 18 8 51 1026 10 O 13
Ieri h: 21:51 sereno Sereno 18 8 51 1026 10 N 0
Ieri h: 20:51 sereno Sereno 18 8 51 1026 10 N 5.5
Ieri h: 19:51 sereno Sereno 18 10 59 1026 10 N 5.5